Погода в Вишняково

Россия / Владимирская область     56°39′23″N   38°23′02″E
темп.,
°C
ветер,
м/с
пор.,
м/с
влажн.,
%
обл.,
%
осадки,
мм/ч
давл.,
гПа
погр.,
м
26 февраля, пт
пт2600:00+1зюз2699100 0.1 1011165
03:00+1юз3899100 1.3 1009230
06:00+2зюз311100100 1.4 1006307
09:00+2зюз51399100 3.1 1004438
12:00+2зюз514100100 1.9 1001529
15:00+2з615100100 3.3 1000846
18:00+2з6148784 0.1 9991033
21:00+1з7159492 0.1 9991102
27 февраля, сб
сб2700:00+1зсз61497100 0.7 9971000
03:000зсз61397100 0.9 9991009
06:00−6ссз51395100 1.2 1000626
09:00−10ссз51089100 1.6 1003636
12:00−10ссз4889100 0.0 1005601
15:00−9ссз4890100 0.1 1008587
18:00−11ссз3993100 0.0 1010414
21:00−13ссз289595 0.1 1013281
28 февраля, вс
вс2800:00−14сз259770 0.0 1014132
03:00−12ссз279576 0.1 1016292
06:00−12сз289689 0.1 1016265
09:00−10сз279593 0.3 1017287
12:00−5ссз479199 0.1 1017701
15:00−4ссз4788100 0.3 1018767
18:00−5ссз3793100 0.1 1019434
21:00−7ссз239597 0.1 1021107
1 марта, пн
пн100:00−6ссз129799 0.1 102259
03:00−6сз139798 0.2 1023138
06:00−6зсз1197100 0.1 102425
09:00−5зюз2496100 0.3 1024237
12:00−2зюз358997 0.1 1024543
15:00−1зюз479195 0.1 1023553
18:00−1зюз41095100 0.1 1021462
21:00−1зюз51096100 0.3 1019515
2 марта, вт
вт200:00+1з51298100 0.4 1017614
03:00+1з51297100 0.5 1015610
06:00+1з51198100 0.1 1013591
09:00+1зсз51198100 0.8 1013727
12:00+1зсз51199100 0.4 1013683
15:00+1зсз5119299 0.9 1012924
18:000зсз41189100 0.3 1012861
21:00−1сз51196100 0.6 1013910